Вернуться в каталог

CZ-4B DEB

АктивенSSO
NORAD 36290·DEBRIS·🇨🇳 China

Запущен Oct 25, 2008 с Taiyuan Satellite Launch Center

Loading…

Ближайшие Пролёты (ближайшие 24 часа)

TLE

СвежийSource: Space-Track

Эпоха: Sep 13, 2026, 19:01 UTC

1 36290U 08053L   26256.79250240  .00001607  00000-0  10133-3 0  9991
2 36290  97.7780 279.4333 0008034 327.2129  32.8601 15.10593262742638

Отслеживайте CZ-4B DEB в реальном времени с AllMySat

Download on the App Store